Skip Page Navigation
NASA JPL Caltech
NASA Logo - Jet Propulsion Laboratory + View the NASA Portal
+ Center for Near-Earth Object Studies
JPL Home Earth Solar System Stars & Galaxies Technology
JPL Solar System Dynamics
BODIES ORBITS EPHEMERIDES TOOLS PHYSICAL DATA DISCOVERY FAQ SITE MAP
IMPORTANT: The SSD Announcement email list is now available. Major changes are coming in the near future, including possible hostname and/or URL changes. To be notified of such changes, subscribe to this email list.

Please visit this page for more details.


JPL Small-Body Database Browser
Search: [ help ]  
183730 (2003 YF100)
Classification: Main-belt Asteroid          SPK-ID: 2183730
Ephemeris | Orbit Diagram | Orbital Elements | Mission Design | Physical Parameters | Discovery Circumstances | Close-Approach Data ]

[ show orbit diagram ]
Orbital Elements at Epoch 2458600.5 (2019-Apr-27.0) TDB
Reference: JPL 11 (heliocentric ecliptic J2000)
 Element Value Uncertainty (1-sigma)   Units 
e .09786402508375493 8.0613e-08  
a 2.314119465806261 1.9285e-08 au
q 2.087650420357792 1.8461e-07 au
i 3.409792406627734 7.0206e-06 deg
node 129.1186145131178 0.00014404 deg
peri 20.78959300464321 0.00014977 deg
M 87.21159444659726 4.0908e-05 deg
tp 2458289.006623810081
(2018-Jun-19.50662381)
0.00014547 TDB
period 1285.810861960984
3.52
1.6073e-05
4.401e-08
d
yr
n .2799789694193171 3.4999e-09 deg/d
Q 2.540588511254731 2.1172e-08 au
  Orbit Determination Parameters
   # obs. used (total)      240  
   data-arc span      7682 days (21.03 yr)  
   first obs. used      1997-01-11  
   last obs. used      2018-01-23  
   planetary ephem.      DE431  
   SB-pert. ephem.      SB431-N16  
   condition code      0  
   norm. resid. RMS      .63613  
   source      ORB  
   producer      Otto Matic  
   solution date      2018-Feb-06 07:57:59  

Additional Information
 Earth MOID = 1.09966 au 
 Jupiter MOID = 2.45037 au 
 T_jup = 3.574 
[ hide covariance matrix ]
Orbital Elements at Epoch 2456737.5 (2014-Mar-21.0) TDB
Reference: JPL 11 (heliocentric ecliptic J2000)
 Element Value Uncertainty (1-sigma)   Units 
e .09828002037384799 8.0405e-08  
q 2.08577051828913 1.8423e-07 au
tp 2457003.387740061074
(2014-Dec-11.88774006)
0.00014329 TDB
node 129.1459622261112 0.00014411 deg
peri 20.67091804378979 0.0001498 deg
i 3.409335214797916 7.0186e-06 deg
  Orbit Determination Parameters
   # obs. used (total)      240  
   data-arc span      7682 days (21.03 yr)  
   first obs. used      1997-01-11  
   last obs. used      2018-01-23  
   planetary ephem.      DE431  
   SB-pert. ephem.      SB431-N16  
   condition code      0  
   norm. resid. RMS      .63613  
   source      ORB  
   producer      Otto Matic  
   solution date      2018-Feb-06 07:57:59  

Additional Information
 Jupiter MOID = 2.45037 au 
 T_jup = 3.574 
Orbit Covariance (6×6)
  e q tp node peri i
e 6.464898671647536E-15 -1.474860759467645E-14 7.2877531427232E-12 4.254953380703207E-14 2.032561253421687E-12 -7.336318726557203E-15
q -1.474860759467645E-14 3.394220776255793E-14 -1.676272725448396E-11 -9.970881602301883E-14 -4.698016110522605E-12 1.705988058137135E-14
tp 7.2877531427232E-12 -1.676272725448396E-11 2.053201294526315E-8 1.516801841296275E-10 5.94947527072718E-9 -8.083295954708734E-12
node 4.254953380703207E-14 -9.970881602301883E-14 1.516801841296275E-10 2.076753707587478E-8 -2.068561700826788E-8 6.248434067605772E-10
peri 2.032561253421687E-12 -4.698016110522605E-12 5.94947527072718E-9 -2.068561700826788E-8 2.243998898389504E-8 -6.260931255666101E-10
i -7.336318726557203E-15 1.705988058137135E-14 -8.083295954708734E-12 6.248434067605772E-10 -6.260931255666101E-10 4.926094195315016E-11

Ephemeris | Orbit Diagram | Orbital Elements | Mission Design | Physical Parameters | Discovery Circumstances | Close-Approach Data ]

Physical Parameter Table
Parameter Symbol Value Units Sigma Reference Notes
absolute magnitude H 16.9   n/a MPO433202  

183730 (2003 YF100)          Discovered 2003-Dec-19 by LINEAR at Socorro
Reference: 20080420/Numbers.arcLast Updated: 2008-04-23

[ show close-approach data ]
Alternate Designations
 2003 YF100 = 2006 SP160 
Ephemeris | Orbit Diagram | Orbital Elements | Mission Design | Physical Parameters | Discovery Circumstances | Close-Approach Data ]
ABOUT SSD CREDITS/AWARDS PRIVACY/COPYRIGHT GLOSSARY LINKS
FirstGov 2019-Dec-05 19:55 UT
(server date/time)  
NASA Home Page
Site Manager:   Ryan S. Park
Webmaster  Alan B. Chamberlin